Regional Weather Roundup
Issued by NWS

Home | Current Version | Previous Version | Text Only | Print | Product List | Glossary On
Versions: 1 2 3 4 5 6 7 8 9 10 11 12 13 14 15 16 17 18 19 20 21 22 23 24 25 26 27 28 29 30 31 32 33 34 35 36 37 38 39 40 41 42 43 44 45 46 47 48 49 50
000
ASUS44 KOUN 290300
RWROK

WEATHER ROUNDUP FOR OKLAHOMA
NATIONAL WEATHER SERVICE NORMAN OK
1000 PM CDT WED JUN 28 2017

NOTE: "FAIR" INDICATES FEW OR NO CLOUDS BELOW 12,000 FEET WITH NO
      SIGNIFICANT WEATHER AND/OR OBSTRUCTIONS TO VISIBILITY.

OKZ001>007-009>012-014-015-017-290400-
NORTHWEST OKLAHOMA AND THE PANHANDLE

CITY           SKY/WX    TMP DP  RH WIND       PRES   REMARKS
GAGE           CLEAR     83  64  52 S26G36    29.74R
GUYMON         CLEAR     85  63  47 S15       29.71R
$$

OKZ016-021>023-033>039-044-045-290400-
SOUTHWEST OKLAHOMA

CITY           SKY/WX    TMP DP  RH WIND       PRES   REMARKS
LAWTON/REGL    CLEAR     81  68  64 SE13      29.82R
LAWTON/FT SILL CLEAR     80  69  68 S14       29.81R
FREDERICK      CLEAR     83  67  58 S20       29.77R
CLINTON        CLEAR     82  64  54 S23G32    29.80R
HOBART         CLEAR     83  66  56 S22G30    29.80R
ALTUS AFB      CLEAR     83  64  53 SE17      29.78R
$$

OKZ018>020-024>031-290400-
CENTRAL OKLAHOMA

CITY           SKY/WX    TMP DP  RH WIND       PRES   REMARKS
OKLAHOMA CITY  CLEAR     80  66  62 S17G23    29.82R
OKC/WILEY POST CLEAR     82  67  60 S18       29.81R
STILLWATER     CLEAR     82  64  54 S13G21    29.80R
GUTHRIE        CLEAR     83  65  54 S15G23    29.80R
$$

OKZ008-013-054>072-290400-
NORTHEAST OKLAHOMA

CITY           SKY/WX    TMP DP  RH WIND       PRES   REMARKS
TULSA          CLEAR     84  69  60 S15       29.81R
TULSA/JONES    CLEAR     84  66  54 S9        29.82R
PONCA CITY     CLEAR     85  64  49 S12G18    29.78R
BARTLESVILLE   CLEAR     80  66  62 S5        29.82R
MUSKOGEE       CLEAR     78  68  71 S7        29.86R
$$

OKZ032-040>043-046>053-073>077-290400-
SOUTH CENTRAL/SOUTHEAST OKLAHOMA

CITY           SKY/WX    TMP DP  RH WIND       PRES   REMARKS
MCALESTER      CLEAR     81  68  64 S6        29.88R
$$





USA.gov is the U.S. government's official web portal to all federal, state and local government web resources and services.